Fosston, MN

9:16 PM CDT on March 28, 2017 (GMT -0500)
Fosston Municipal

Weather History for KFSE - December, 2010

Change the Weather History Date:

Monday, December 20, 2010

  Actual Average Record
Temperature  
Mean Temperature 8 °F -  
Max Temperature 19 °F 17 °F 59 °F (2003)
Min Temperature -4 °F 0 °F -34 °F (1963)
Degree Days  
Heating Degree Days 58    
Moisture  
Dew Point 6 °F    
Average Humidity 81    
Maximum Humidity 92    
Minimum Humidity 63    
Precipitation  
Precipitation 0.00 in - - ()
Sea Level Pressure  
Sea Level Pressure 29.87 in    
Wind  
Wind Speed 6 mph (ESE)    
Max Wind Speed 15 mph    
Max Gust Speed 21 mph    
Visibility 9 miles    
Events Snow    
Averages and records for this station are not official NWS values.
T = Trace of Precipitation, MM = Missing Value Source: NWS Daily Summary

Daily Weather History Graph

Daily Weather History Graph

Search for Another Location

Airport or City:

Trip Planner

Search our weather history database for the weather conditions in past years. The results will help you decide how hot, cold, wet, or windy it might be!

Date:

Astronomy

Dec. 20, 2010 Rise Set
Actual Time 8:07 AM CST 4:33 PM CST
Civil Twilight 7:31 AM CST 5:09 PM CST
Nautical Twilight 6:52 AM CST 5:49 PM CST
Astronomical Twilight 6:14 AM CST 6:26 PM CST
Moon 4:00 PM CST (12/20) 7:35 AM CST (12/20)
Length of Visible Light 9h 37m
Length of Day
8h 25m
Full, 100% of the Moon is Illuminated
Dec 20
Full
Dec 21
Full
Dec 27
Last Quarter
Jan 4
New
Jan 12
First Quarter

Hourly Weather History & Observations

Time (CST) Temp. Windchill Dew Point Humidity Pressure Visibility Wind Dir Wind Speed Gust Speed Precip Events Conditions
12:13 AM -2.2 °F -12.5 °F -5.8 °F 85% 29.93 in 10.0 mi SE 4.6 mph - N/A   Clear
12:33 AM -2.2 °F -12.5 °F -5.8 °F 85% 29.93 in 10.0 mi SSE 4.6 mph - N/A   Clear
12:53 AM -2.2 °F -12.5 °F -5.8 °F 85% 29.93 in 10.0 mi SE 4.6 mph - N/A   Clear
1:13 AM -2.2 °F -14.2 °F -5.8 °F 85% 29.93 in 10.0 mi SE 5.8 mph - N/A   Clear
1:33 AM -2.2 °F -12.5 °F -5.8 °F 85% 29.93 in 10.0 mi SE 4.6 mph - N/A   Clear
1:53 AM -2.2 °F -12.5 °F -7.6 °F 78% 29.93 in 10.0 mi SE 4.6 mph - N/A   Scattered Clouds
2:32 AM -4.0 °F - -7.6 °F 85% 29.93 in 10.0 mi Calm Calm - N/A   Mostly Cloudy
2:53 AM -0.4 °F - -2.2 °F 92% 29.94 in 10.0 mi Calm Calm - N/A   Overcast
3:13 AM 1.4 °F - -0.4 °F 92% 29.94 in 10.0 mi Calm Calm - N/A   Overcast
3:33 AM 3.2 °F - -0.4 °F 85% 29.94 in 10.0 mi Calm Calm - N/A   Overcast
3:53 AM 3.2 °F - -0.4 °F 85% 29.94 in 10.0 mi Calm Calm - N/A   Overcast
4:13 AM 3.2 °F - 1.4 °F 92% 29.94 in 10.0 mi Calm Calm - N/A   Overcast
4:33 AM 5.0 °F -2.1 °F 1.4 °F 85% 29.93 in 10.0 mi ESE 3.5 mph - N/A   Overcast
4:53 AM 5.0 °F - 1.4 °F 85% 29.92 in 10.0 mi Calm Calm - N/A   Overcast
5:13 AM 5.0 °F -2.1 °F 1.4 °F 85% 29.92 in 10.0 mi ESE 3.5 mph - N/A   Overcast
5:33 AM 6.8 °F -2.0 °F 3.2 °F 85% 29.92 in 10.0 mi ESE 4.6 mph - N/A   Overcast
5:53 AM 6.8 °F -0.1 °F 3.2 °F 85% 29.92 in 10.0 mi ESE 3.5 mph - N/A   Overcast
6:13 AM 6.8 °F -0.1 °F 5.0 °F 92% 29.92 in 10.0 mi ESE 3.5 mph - N/A   Overcast
6:33 AM 6.8 °F -4.8 °F 5.0 °F 92% 29.91 in 10.0 mi ESE 6.9 mph - N/A   Overcast
6:53 AM 8.6 °F -1.3 °F 5.0 °F 85% 29.90 in 10.0 mi ESE 5.8 mph - N/A   Overcast
7:14 AM 8.6 °F 2.0 °F 6.8 °F 92% 29.90 in 10.0 mi East 3.5 mph - N/A   Overcast
7:33 AM 10.4 °F 0.8 °F 6.8 °F 85% 29.88 in 10.0 mi East 5.8 mph - N/A   Overcast
7:52 AM 10.4 °F 0.8 °F 6.8 °F 85% 29.88 in 10.0 mi East 5.8 mph - N/A   Overcast
8:13 AM 10.4 °F 4.0 °F 8.6 °F 92% 29.88 in 10.0 mi East 3.5 mph - N/A   Overcast
8:33 AM 10.4 °F 4.0 °F 8.6 °F 92% 29.88 in 10.0 mi ESE 3.5 mph - N/A   Overcast
8:53 AM 10.4 °F 2.2 °F 8.6 °F 92% 29.88 in 10.0 mi ESE 4.6 mph - N/A   Overcast
9:13 AM 12.2 °F 1.7 °F 8.6 °F 85% 29.87 in 10.0 mi East 6.9 mph - N/A   Overcast
9:53 AM 15.8 °F 6.1 °F 10.4 °F 79% 29.89 in 10.0 mi ESE 6.9 mph - N/A   Overcast
10:13 AM 15.8 °F 6.1 °F 10.4 °F 79% 29.89 in 10.0 mi ESE 6.9 mph - N/A   Overcast
10:33 AM 17.6 °F 8.2 °F 10.4 °F 73% 29.89 in 10.0 mi East 6.9 mph - N/A   Overcast
10:53 AM 17.6 °F 5.7 °F 10.4 °F 73% 29.89 in 10.0 mi ESE 10.4 mph - N/A   Overcast
11:13 AM 17.6 °F 5.0 °F 8.6 °F 68% 29.87 in 10.0 mi ESE 11.5 mph 18.4 mph N/A   Overcast
11:33 AM 17.6 °F 5.0 °F 8.6 °F 68% 29.86 in 10.0 mi ESE 11.5 mph 17.3 mph N/A   Overcast
11:53 AM 17.6 °F 5.7 °F 8.6 °F 68% 29.86 in 10.0 mi ESE 10.4 mph 17.3 mph N/A   Overcast
12:13 PM 17.6 °F 5.0 °F 8.6 °F 68% 29.85 in 10.0 mi East 11.5 mph 16.1 mph N/A   Overcast
12:33 PM 19.4 °F 6.6 °F 8.6 °F 63% 29.84 in 10.0 mi ESE 12.7 mph 18.4 mph N/A   Overcast
12:53 PM 19.4 °F 7.2 °F 8.6 °F 63% 29.83 in 10.0 mi ESE 11.5 mph 20.7 mph N/A   Overcast
1:13 PM 19.4 °F 7.9 °F 10.4 °F 68% 29.83 in 10.0 mi East 10.4 mph - N/A   Overcast
1:33 PM 19.4 °F 8.6 °F 10.4 °F 68% 29.82 in 10.0 mi East 9.2 mph 17.3 mph N/A   Overcast
1:53 PM 19.4 °F 7.9 °F 10.4 °F 68% 29.82 in 10.0 mi East 10.4 mph 16.1 mph N/A   Overcast
2:13 PM 19.4 °F 6.6 °F 12.2 °F 74% 29.81 in 7.0 mi East 12.7 mph 17.3 mph N/A   Overcast
2:33 PM 19.4 °F 7.2 °F 12.2 °F 74% 29.80 in 3.0 mi East 11.5 mph 17.3 mph N/A   Overcast
2:53 PM 19.4 °F 6.0 °F 12.2 °F 74% 29.80 in 5.0 mi East 13.8 mph 19.6 mph N/A   Overcast
3:13 PM 19.4 °F 6.6 °F 12.2 °F 74% 29.80 in 7.0 mi East 12.7 mph 19.6 mph N/A   Overcast
3:33 PM 19.4 °F 6.0 °F 12.2 °F 74% 29.80 in 5.0 mi East 13.8 mph - N/A   Mostly Cloudy
4:33 PM 19.4 °F 5.5 °F 14.0 °F 80% 29.80 in 5.0 mi East 15.0 mph 19.6 mph N/A   Overcast
4:53 PM 19.4 °F 6.6 °F 14.0 °F 80% 29.80 in 5.0 mi East 12.7 mph 18.4 mph N/A   Overcast
5:13 PM 19.4 °F 7.2 °F 15.8 °F 86% 29.80 in 1.8 mi East 11.5 mph 20.7 mph N/A   Overcast
5:33 PM 17.6 °F 3.2 °F 14.0 °F 86% 29.79 in 1.2 mi East 15.0 mph 20.7 mph N/A   Overcast
5:53 PM 17.6 °F 3.2 °F 14.0 °F 86% 29.78 in 0.8 mi East 15.0 mph - N/A Snow Light Snow
6:13 PM 17.6 °F 3.2 °F 14.0 °F 86% 29.78 in 1.0 mi East 15.0 mph 19.6 mph N/A Snow Light Snow
6:33 PM 17.6 °F 3.2 °F 15.8 °F 93% 29.78 in 0.8 mi East 15.0 mph 19.6 mph N/A Snow Snow
6:53 PM 17.6 °F 3.2 °F 15.8 °F 93% 29.79 in 1.2 mi East 15.0 mph 21.9 mph N/A Snow Light Snow
7:33 PM 17.6 °F 5.0 °F 15.8 °F 93% 29.80 in 1.0 mi ESE 11.5 mph 19.6 mph N/A Snow Light Snow
8:13 PM 17.6 °F 4.3 °F 15.8 °F 93% 29.79 in - ESE 12.7 mph 19.6 mph N/A   Overcast
8:33 PM 17.6 °F 4.3 °F 15.8 °F 93% 29.80 in - ESE 12.7 mph - N/A   Overcast
8:53 PM 17.6 °F 4.3 °F 15.8 °F 93% 29.80 in - East 12.7 mph - N/A   Overcast
9:13 PM 17.6 °F 3.7 °F 15.8 °F 93% 29.79 in - East 13.8 mph 18.4 mph N/A   Unknown
9:33 PM 17.6 °F 3.2 °F 15.8 °F 93% 29.79 in - ESE 15.0 mph 19.6 mph N/A   Unknown
9:53 PM 19.4 °F 6.6 °F 15.8 °F 86% 29.79 in - ESE 12.7 mph 18.4 mph N/A   Unknown
10:13 PM 19.4 °F 7.2 °F 17.6 °F 93% 29.80 in - East 11.5 mph - N/A   Overcast
10:33 PM 19.4 °F 7.2 °F 17.6 °F 93% 29.80 in - ESE 11.5 mph - N/A   Overcast
10:52 PM 19.4 °F 7.2 °F 17.6 °F 93% 29.79 in - ESE 11.5 mph 20.7 mph N/A   Overcast
11:13 PM 19.4 °F 6.6 °F 17.6 °F 93% 29.78 in - East 12.7 mph 20.7 mph N/A   Unknown
11:33 PM 19.4 °F 6.6 °F 17.6 °F 93% 29.78 in - ESE 12.7 mph 19.6 mph N/A   Overcast
11:53 PM 19.4 °F 6.6 °F 17.6 °F 93% 29.78 in - ESE 12.7 mph 19.6 mph N/A   Overcast